Regional Weather Roundup
Issued by NWS

Home | Current Version | Previous Version | Graphics & Text | Print | Product List | Glossary On
Versions: 1 2 3 4 5 6 7 8 9 10 11 12 13 14 15 16 17 18 19 20 21 22 23 24 25 26 27 28 29 30 31 32 33 34 35 36 37 38 39 40 41 42 43 44 45 46 47 48 49 50
000
ASUS45 KTFX 251104
RWRMT
MONTANA HOURLY WEATHER ROUNDUP
NATIONAL WEATHER SERVICE GREAT FALLS MT
504 AM MDT FRI JUL 25 2014

NOTE: "FAIR" INDICATES FEW OR NO CLOUDS BELOW 12000 FEET WITH NO
SIGNIFICANT WEATHER AND/OR OBSTRUCTIONS TO VISIBILITY.

* THESE STATIONS ARE NOT UNDER NWS QUALITY CONTROL. THEY DO NOT
   REPORT WEATHER SUCH AS PRECIPITATION OR FOG.

MTZ001>007-043-251200-
WEST OF THE DIVIDE
CITY           SKY/WX    TMP DP  RH WIND       PRES   REMARKS
KALISPELL      PTCLDY    46  43  89 S6        30.03S
MISSOULA       CLOUDY    48  39  71 CALM      30.12S
BUTTE          CLEAR     37  30  76 SE6       30.15R WCI  32
MULLAN PASS    CLOUDY    45  39  80 VRB5      30.13F
* ESSEX        N/A       57  39  51 SW6G12     N/A
* LINCOLN      N/A       45  37  74 W3         N/A
* LOOKOUT PASS N/A       49  42  77 N4         N/A
* POLSON       N/A       47  38  71 SE2        N/A
* RONAN APT    CLEAR     48  43  83 N/A        N/A
* SEELEY LAKE  N/A       35  33  92 NE1G6      N/A
* THOMP F APT  PTCLDY    44  21  40 NE3G8      N/A
$$

MTZ008-052>055-251200-
SOUTHWEST MONTANA
CITY           SKY/WX    TMP DP  RH WIND       PRES   REMARKS
BOZEMAN        CLEAR     45  37  74 S7        30.09S
DILLON         CLEAR     43  34  71 SW13      30.11R
W YELLOWSTONE  CLEAR     36  27  70 CALM      30.19S
* THREE FORKS  CLEAR     43  43 100 N/A        N/A
* BOULDER HILL N/A       50  30  46 W1G8       N/A
* MONIDA PASS  N/A       42  27  55 N/A        N/A
* RAYNOLDS PAS N/A       37  19  48 SE7        N/A   WCI  32
* WHITEHALL    N/A       52  32  47 N1G9       N/A
* WISE RIVER   N/A       39  31  73 N1         N/A
$$

MTZ009>010-012-014-046-048-049-054-251200-
EAST SLOPES AND CENTRAL MONTANA
CITY           SKY/WX    TMP DP  RH WIND       PRES   REMARKS
CUT BANK       CLEAR     55  37  51 W18       29.91R
GREAT FALLS    CLEAR     55  36  49 SW28      29.93F
HELENA         CLEAR     55  36  49 VRB5      30.06S
MALMSTROM AFB  CLEAR     57  36  46 SW23G36   29.95F
* CONRAD       CLEAR     46  43  89 S5         N/A
* DEARBORN     N/A       60  35  39 S11G24     N/A
* EAST GLACIER N/A       52  35  52 NW9G20     N/A
* MONARCH      N/A       51  27  39 SW6G15     N/A
* SAINT MARY   N/A       53  37  55 S11G25     N/A
* SWEET GRASS  N/A       53  37  55 W16G22     N/A
$$

MTZ011-013-016-021-035-040-045-047-050-051-251200-
NORTH CENTRAL MONTANA
CITY           SKY/WX    TMP DP  RH WIND       PRES   REMARKS
HAVRE          CLEAR     54  37  53 SW22G29   29.85F
LEWISTOWN      CLEAR     52  34  50 W8        29.98R
* CHESTER      N/A       55  39  55 SW9G15     N/A
* DENTON       N/A       56  32  40 SW10       N/A
* GEYSER       N/A       57  33  40 SW24G30    N/A
* JUDITH GAP   N/A       47  32  56 SW9        N/A
* LOMA         N/A       56  37  49 W7G17      N/A
$$

MTZ017>020-022>027-061-062-251200-
NORTHEAST MONTANA
CITY           SKY/WX    TMP DP  RH WIND       PRES   REMARKS
GLASGOW        CLEAR     54  37  53 S3        29.89R
GLENDIVE       CLEAR     52  46  80 W7        29.94S
JORDAN         CLEAR     45  39  80 CALM      29.93F
SIDNEY         CLEAR     50  46  86 CALM      29.91R
WOLF POINT     CLEAR     48  46  93 SW6       29.90R
* BEAVER HILL  N/A       54  46  74 SW6        N/A
* CIRCLE       N/A       49  46  89 N/A        N/A
* LINDSAY DVD  N/A       52  44  74 W6         N/A
* NAVAJO       N/A       50  46  86 W11        N/A
$$

MTZ028>042-056>058-251200-
SOUTHCENTRAL AND SOUTHEAST MONTANA
CITY           SKY/WX    TMP DP  RH WIND       PRES   REMARKS
BAKER          CLEAR     52  46  80 NW5       29.96R
BILLINGS       CLEAR     61  30  31 N3        30.00S
LIVINGSTON     CLEAR     54  32  43 W8        30.07R
MILES CITY     CLEAR     54  50  86 CALM      29.95S
* LAUREL APT   CLEAR     57  36  46 N/A        N/A
* ROUNDUP APT  CLEAR     59  30  33 SW6        N/A
* ALZADA       N/A       54  49  83 N/A        N/A
* HYSHAM       N/A       59  35  41 W4         N/A
* LAME DEER    N/A       58  39  49 S2         N/A
* REED POINT   N/A       52  32  47 N/A        N/A
* ROSCOE HILL  N/A       54  29  38 SE7        N/A
$$

REGIONAL REPORTS...DAKOTAS
CITY           SKY/WX    TMP DP  RH WIND       PRES   REMARKS
WILLISTON      CLEAR     54  50  86 S7        29.87R
DICKINSON      CLEAR     52  46  80 W6        29.88R
CROSBY         N/A       54  54 100 SW9       29.83S
TIOGA          CLEAR     50  50 100 W7        29.88R
WATFORD CITY   CLEAR     50  50 100 SW6       29.86S
BISMARCK       CLOUDY    66  64  93 W5        29.80R
GRAND FORKS    MOCLDY    64  63  97 SE8       29.69F
FARGO          MOCLDY    64  61  90 E6        29.74R
BUFFALO SD     CLEAR     54  46  74 SW5       29.88R
RAPID CITY     CLEAR     64  37  37 NW20      29.93R
$$

REGIONAL REPORTS...WYOMING/IDAHO/WASHINGTON
CITY           SKY/WX    TMP DP  RH WIND       PRES   REMARKS
GILLETTE       CLEAR     48  45  89 S3        30.02S
SHERIDAN       CLEAR     54  46  74 SW3       30.01S
YELLOWSTONE LA CLEAR     30  23  75 NW3       30.27S
SALMON         PTCLDY    48  34  59 CALM      30.10S
MULLAN PASS    CLOUDY    45  39  80 VRB5      30.13S
SAND POINT     CLEAR     45  45 100 W3        30.04S
SPOKANE        FAIR      52  43  72 SW10      30.06S
$$

REGIONAL REPORTS...ALBERTA
CITY           SKY/WX    TMP DP  RH WIND       PRES   REMARKS
CALGARY        LGT RAIN  57  36  46 W20G37    29.74S
EDMONTON       RAIN      54  52  93 W17G25    29.54F

$$



USA.gov is the U.S. government's official web portal to all federal, state and local government web resources and services.